COSMOS 1275 DEB, 42109

Orbit data source: Space-Track

COSMOS 1275 DEB, 42109 is space debris in LEO originally from a launch on Thu, 04 Jun 1981 UTC launched from the Plesetsk Missile And Space Complex (PKMTR). Debris objects in space refer to the collection of defunct objects orbiting the Earth. Examples of debris include non-operational satellites, rocket bodies, and fragments generated from explosions, collisions, or faulty payload assembly.

Loading next visibility...
Identifier
42109, 1981-053PV
Orbit
LEO
Country
Flag of CISCIS
Related business
Manufacturer
Unknown
Mission
Spacecraft
Bus & Motor
Unknown
Mass
Unknown
Launch date (UTC)
1981-06-04 (45 years ago)
Launch vehicle
Unknown
Launch site
Plesetsk Missile And Space Complex (PKMTR)
Object type
Payload
Rocket body
Debris
Shape & HBR
Unknown shape, 0.1 m
Radar Cross Section
Small (<0.1 m²)

Expand to show TLE details & history
Last TLE update: 6 days ago

TLE from 6 days ago
0 COSMOS 1275 DEB
1 42109U 81053PV  26154.85701685  .00000094  00000-0  77702-4 0  9991
2 42109  82.9484 188.5711 0030337 126.3420 353.7646 13.78318360630269
Epoch: 2026-06-03T20:34Z
TLE epoch observation values (Epoch: 2026-06-03T20:34:06.255Z)
Latitude
59.28564°
Longitude
155.78131°
Altitude
957.747 km
Speed
7.39 km/s
True Right ascension
23h 46m 28s
True Declination
59° 08' 19"
Sunlit
Object was in daylight at epoch
Visualization orbit readout
Latitude
Unknown
Longitude
Unknown
Altitude
Unknown
Speed
Unknown
Apparent Right ascension
Unknown
Apparent Declination
Unknown
Sunlit
N/A
Visualization observer readout
Local Sidereal Time
18:57:30
Azimuth
Unknown
Elevation
Unknown
Doppler factor
Unknown
Orbital elements
Apogee altitude
989.284 km
Perigee altitude
944.718 km
Semi-major axis
7,345.138 km
Eccentricity
0.00303
Inclination
82.9484°
RAAN
188.5711°
Arg. of periapsis
126.342°
True anomaly
353.7267°
Mean anomaly
353.7646°
Eccentric anomaly
353.74566°
Mean motion
3.44781 °/min
Orbital period
104.41 mins
BSTAR
0.000077702
Loading maneuver chart data...
Computing Atmospheric mass density...

Documentation

Showing up to 5 results
|